Powrót do katalogu

STARLINK-31244

AktywnyŁącznośćVLEO
NORAD 58856·PAYLOAD·🇺🇸 United States

Wystrzelony Jan 29, 2024 z Cape Canaveral Space Force Station

Loading…

Następne Przeloty (najbliższe 24 godziny)

TLE

ŚwieżeSource: CelesTrak SupGP

Epoka: Sep 15, 2026, 02:59 UTC

1 58856C 24019D   26258.12479167 -.00020922  00000+0 -75768-3 0  2588
2 58856  43.0018 259.0297 0001359 260.9235 140.9022 15.27594634    14

Śledź STARLINK-31244 w czasie rzeczywistym z AllMySat

Download on the App Store